COSMOS 2119

导读 | 星芒AI

COSMOS 2119 是苏联于1992年发射的一颗军事通信卫星,搭载在“联盟”号运载火箭上。该卫星属于“天线”(Antey)系列,主要用于支持俄罗斯军队的战术和战略通信。其具体任务细节未公开,但该系列卫星通常具备抗干扰和加密通信能力,以确保军事行动中的信息安全。COSMOS 2119 在轨运行后,为苏联(后为俄罗斯)提供了关键的军事通信支持,是冷战后期至后冷战时期俄罗斯空间通信体系的重要组成部分。

基本信息
目录编号:
21033
目录名称:
COSMOS 2119
国际标识:
1990-114F
轨道中心:
EARTH
卫星名称:
COSMOS 2119
卫星全名:
--
卫星状态:
在轨 (已飞行12777 天)
发射日期:
1990-12-22 UTC
国别 :
俄罗斯(独联体) (CIS)
星等 :
--
轨道信息
数据来源 国际轨道数据
星历时间: 2025-12-15T05:34:10+0800
20小时前
查看轨道信息
半长轴: 7774.909km
偏心率: 0.0015101
轨道倾角: 82.573°
近地点辐角 36.993°
升交点赤经 292.469°
平近点角 19.394°
近地点: 1385.033km
远地点: 1408.515km
周期: 113.711分钟
每日圈数: 12.663676
详细信息
使用方式:
暂无
2D轨道图
3D轨道图
轨道高度分析图
轨道倾角分析图
轨道综合分析图
查看轨道综合分析图